Regional Weather Roundup
Issued by NWS

Home | Current Version | Previous Version | Graphics & Text | Print | Product List | Glossary On
Versions: 1 2 3 4 5 6 7 8 9 10 11 12 13 14 15 16 17 18 19 20 21 22 23 24 25 26 27 28 29 30 31 32 33 34 35 36 37 38 39 40 41 42 43 44 45 46 47 48 49 50
000
ASUS43 KMKX 281700
RWRWI

WISCONSIN REGIONAL WEATHER ROUNDUP
NATIONAL WEATHER SERVICE MILWAUKEE/SULLIVAN WI
1200 PM CDT THU APR 28 2016

NOTE: "FAIR" INDICATES FEW OR NO CLOUDS BELOW 12,000 FEET WITH NO
SIGNIFICANT WEATHER AND/OR OBSTRUCTIONS TO VISIBILITY.

WIZ001-002-006>008-014>016-023>028-281800-
NORTHWEST WISCONSIN

CITY           SKY/WX    TMP DP  RH WIND       PRES   REMARKS
SUPERIOR ARPT  CLOUDY    40  33  73 E17G31    30.10R WCI  32
ASHLAND        CLOUDY    44  32  62 NE14      30.10R
HAYWARD        CLOUDY    52  22  30 NE12G17   30.02S
SIREN          CLOUDY    50  20  30 E6        30.02S
CUMBERLAND     CLOUDY    45  21  39 CALM      30.01S
RICE LAKE      CLOUDY    46  22  38 E8        30.02S
CHETEK         CLOUDY    46  24  43 E5        30.01S
LADYSMITH      CLOUDY    49  21  33 E8        30.03S
EAU CLAIRE     NOT AVBL
MENOMONIE      LGT RAIN  38  38  99 NE10      30.01S WCI  32
NEW RICHMOND   CLOUDY    38  34  85 E13       30.00S WCI  30
OSCEOLA        RAIN      39  35  83 E8        30.04S WCI  34
$$

WIZ003>005-009-010-017-018-281800-
NORTH CENTRAL WISCONSIN

CITY           SKY/WX    TMP DP  RH WIND       PRES   REMARKS
MANITOWISH WTR CLOUDY    44  20  39 E6        30.04R
ARBOR VITAE    CLOUDY    44  19  37 CALM      30.04R
WOODRUFF       CLOUDY    44  19  37 CALM      30.04R
RHINELANDER    CLOUDY    47  20  34 E9        30.04R
EAGLE RIVER    CLOUDY    48  15  26 E8        30.03R
LAND O LAKES   MOSUNNY   48  17  29 SE7       30.05R
PHILLIPS       CLOUDY    46  22  38 NE9       30.02S
TOMAHAWK       CLOUDY    47  17  31 E7        30.03R
MEDFORD        CLOUDY    44  21  39 E8        29.99S
MERRILL        CLOUDY    46  21  37 E12G18    30.02R
$$

WIZ029-030-035-036-043>047-281800-
CENTRAL WISCONSIN

CITY           SKY/WX    TMP DP  RH WIND       PRES   REMARKS
WAUSAU         CLOUDY    46  22  38 SE15      30.00R
MOSINEE        CLOUDY    37  30  75 E7        30.02R WCI  32
MARSHFIELD     LGT RAIN  40  34  79 E12       29.99S WCI  33
STEVENS POINT  LGT RAIN  38  32  78 E9G16     30.01R WCI  32
WAUPACA        LGT RAIN  41  35  79 E8        30.03R
WAUTOMA        NOT AVBL
WISC RAPIDS    LGT RAIN  40  37  89 E14       30.01S WCI  32
CAMP DOUGLAS   NOT AVBL
$$

WIZ011>013-019>022-031-037>040-048>050-281800-
NORTHEAST WISCONSIN

CITY           SKY/WX    TMP DP  RH WIND       PRES   REMARKS
ANTIGO         CLOUDY    42  23  46 E13       30.02R
SHAWANO        MOSUNNY   47  25  41 SE14G20   30.05R
OCONTO         CLOUDY    46  29  52 E14       30.05R
STURGEON BAY   CLOUDY    45  28  53 E8        30.07S
GREEN BAY      LGT RAIN  42  30  62 E8        30.05R
MANITOWOC      NOT AVBL
APPLETON       FRZ DRZL  37  30  75 E7        30.01R WCI  32
CLINTONVILLE   LGT RAIN  43  30  61 E10G16    30.04R
OSHKOSH        LGT RAIN  41  34  76 E10       30.00R
$$

WIZ032>034-041-042-053>061-281800-
SOUTHWEST WISCONSIN

CITY           SKY/WX    TMP DP  RH WIND       PRES   REMARKS
LA CROSSE      CLOUDY    45  34  65 E8        29.94R
SPARTA         LGT RAIN  41  35  80 E13G18    29.95S
VIROQUA        CLOUDY    41  36  82 E16       29.91R
BOSCOBEL       CLOUDY    46  39  76 E7        29.92R
PRAIRIE DU CHI CLOUDY    46  39  78 E8        29.89R
PLATTEVILLE    CLOUDY    44  41  91 E15       29.88R
$$

WIZ056-057-062-063-064-067-068-281800-
SOUTH CENTRAL WISCONSIN

CITY           SKY/WX    TMP DP  RH WIND       PRES   REMARKS
REEDSBURG      RAIN      39  38  95 NE10      29.93S WCI  33
BARABOO/DELLS  LGT RAIN  39  37  93 E14G20    29.93S WCI  31
LONE ROCK      CLOUDY    44  39  82 E12       29.93R
MINERAL POINT  CLOUDY    45  41  87 E12       29.89R
MADISON        CLOUDY    42  38  85 E12       29.93R
MIDDLETON      CLOUDY    42  39  88 E15       29.93R
WATERTOWN      CLOUDY    39  36  87 E14       29.94S WCI  31
MONROE         CLOUDY    43  39  87 E12G17    29.89S
JANESVILLE     CLOUDY    46  37  71 E13       29.90S
$$

WIZ051-052-058>065-066-070>072-281800-
SOUTHEAST WISCONSIN

CITY           SKY/WX    TMP DP  RH WIND       PRES   REMARKS
MILWAUKEE      CLOUDY    40  36  86 E18       29.96R WCI  31
WAUKESHA       CLOUDY    39  34  81 E12G21    29.96R WCI  32
MILWAUKEE/TIMM CLOUDY    39  34  81 MISG      29.98R HAZE
RACINE         CLOUDY    41  35  79 E12       29.97R
BURLINGTON     CLOUDY    41  34  75 NE13      29.93S
KENOSHA        CLOUDY    42  36  79 E21       29.93F
FOND DU LAC    LGT RAIN  42  33  70 E10       30.00R
SHEBOYGAN      CLOUDY    42  31  64 E14       30.01R
WEST BEND      LGT RAIN  36  36 100 E14G20    29.98R WCI  27
JUNEAU         DRIZZLE   38  35  88 E16G23    29.97R WCI  29
$$

LSZ147-162-281800-
LAKE SUPERIOR

STATION/POSITION TIME  TEMP    WIND        PRES    WAVE
                       AIR SEA DIR/SP/G            HT/PER
                 (UTC) (F)     (DEG/KT/KT) (MB)    (FT/S)
W MID LAKE BUOY  1550   37 36   50/ 17/ 21 1020.8R   3/ 5
DEVILS ISLAND    1600   37      50/ 24/ 26 1020.4R
SAXON HARBOR     1600   39      40/ 11/ 13 1017.9R
$$

LMZ867-665-643>646-281800-
LAKE MICHIGAN

STATION/POSITION TIME  TEMP    WIND        PRES    WAVE
                       AIR SEA DIR/SP/G            HT/PER
                 (UTC) (F)     (DEG/KT/KT) (MB)    (FT/S)
CHAMBERS ISLAND  1600   42      50/ 11/ 16 1018.3R
N MID LAKE BUOY  1550   39 39   80/ 14/ 16 1018.1R   3/ 4
NORTHPORT PIER   1600   40      60/ 15/ 17 1018.3R
ALGOMA LAKESHORE 1615           60/ 15/ 18   N/A
KEWAUNEE LAKESHO 1600   40      30/ 11/ 13 1016.2R
SHEBOYGAN LAKESH 1600   40      70/ 12/ 14 1016.8R
PORT WASHINGTON  1600   39      80/ 15/ 21 1015.9S
S MID LAKE BUOY  1550   39 40   90/ 17/ 21 1013.7R   4/ 5
KENOSHA   LAKESH 1600   40      70/ 17/ 20 1013.9R
$$

TC  - TEMPERATURE IN CELSIUS
VSB - VISIBILITY IN STATUTE MILES
WCI - WIND CHILL INDEX
HX  - HEAT INDEX





USA.gov is the U.S. government's official web portal to all federal, state and local government web resources and services.